Hartford Brainard Airport
KHFD : now visible

Airfield :











YOU CAN JOIN US ON...

 
LOGIN :

Register | Disclaimer

   EN    FR    IT 

 









Legend :    VFR   Marginal VFR   IFR   Intensive IFR   Very Intensive IFR
Visi :
Ceiling :
>= 8 km
>= 3000ft
5 to 8 km
1000 to 3000 ft
1500m to 5 km
500 to 1000 ft
800 to 1500m
200 to 500 ft
< 800m
< 200 ft
Symbols :   Thunderstorms  Fog  Heavy snow  Heavy precipitations  Wind > 20 kt






- Airport Elevation : 18 ft


KHFD - Hartford Brainard

CURRENT METAR :
  • 230753Z AUTO 19005KT 10SM FEW120 19/16 A2984 RMK AO2 SLP105 T01940156

EXPIRED METARs :
  • 230653Z AUTO 19006KT 10SM FEW080 SCT110 19/16 A2985 RMK AO2 SLP108 T01890156
  • 230553Z AUTO 18005KT 10SM SCT120 19/15 A2987 RMK AO2 SLP113 T01890150 10239 20189 55002
  • 230453Z AUTO 19005KT 10SM CLR 19/15 A2986 RMK AO2 SLP112 T01890150 403060150
  • 230353Z AUTO 19007KT 10SM CLR 19/15 A2987 RMK AO2 SLP113 T01940150

TAF N/A
KZBW FIR / North America



MET'MAP, your aeronautical weather chart ! - Copyright ORBIFLY December 2007 - Disclaimer

ORBIFLY MET'MAP TEAM :

Programming & Development : Alexandra Zaïnal
Original concept : Baudouin d'Aumeries
Technical & hardware support : Manuel Goepfert
Assistance : Marc-Olivier Méhu




SOURCES & CREDITS :

   NOAA       Earth
Advisory